Погода в Рогозовке

Россия / Амурская область     50°30′33″N   128°38′30″E
темп.,
°C
ветер,
м/с
пор.,
м/с
влажн.,
%
обл.,
%
осадки,
мм/ч
давл.,
гПа
погр.,
м
19 сентября, вс
вс1900:00+7з116196 0.0 101910
03:00+6ююз226329 0.0 101811
06:00+5зюз36740 0.0 101988
09:00+9з57680 0.0 1019416
12:00+13сз35490 0.0 1018817
15:00+14сз47445 0.0 10171796
18:00+11зсз22635 0.0 101811
21:00+8юз22610 0.0 101910
20 сентября, пн
пн2000:00+6юз34620 0.0 102046
03:00+5юз35700 0.0 101971
06:00+5юз36935 0.0 101986
09:00+11ююз58720 0.0 1018317
12:00+15ююз57560 0.0 1016775
15:00+17ююз565164 0.0 10151118
18:00+13ю357276 0.0 101473
21:00+10ююв3471100 0.0 101441
21 сентября, вт
вт2100:00+9ююв3471100 0.0 101355
03:00+8юв3474100 0.0 101358
06:00+8вюв3571100 0.0 101380
09:00+11в3566100 0.0 1012215
12:00+15в4552100 0.0 1011759
15:00+16в4551100 0.0 10091017
18:00+13в3469100 0.0 100968
21:00+12в3565100 0.0 101090
22 сентября, ср
ср2200:00+10всв3469100 0.0 101070
03:00+10в3470100 0.0 101087
06:00+11всв3567100 0.0 1011142
09:00+11в3876100 0.1 1012291
12:00+12вюв4875100 0.2 1013542
15:00+15юв3564100 0.2 1014843
18:00+12з2277100 0.0 101517
21:00+10сз2285100 0.0 101727
23 сентября, чт
чт2300:00+9св338587 0.0 101944
03:00+8в34780 0.0 102063
06:00+7юв37695 0.0 1021120
09:00+12юв46615 0.0 1022293
12:00+16юв344852 0.0 1021938
15:00+17юв344745 0.0 10211307
18:00+13вюв226331 0.0 102215
21:00+10ю337751 0.0 102330